Weather History for Mobile, AL

Change the Weather History Date:

Monday, January 27, 2014

  Actual Average Record
Temperature  
Mean Temperature 54 °F 51 °F  
Max Temperature 64 °F 61 °F 79 °F (1950)
Min Temperature 43 °F 40 °F 14 °F (1940)
Degree Days  
Heating Degree Days 11 14  
Month to date heating degree days 562 403  
Since 1 July heating degree days 1240 1065  
Cooling Degree Days 0 0  
Month to date cooling degree days 0 0  
Year to date cooling degree days 0 0  
Growing Degree Days 4 (Base 50)    
Moisture  
Dew Point 50 °F    
Average Humidity 69    
Maximum Humidity 100    
Minimum Humidity 37    
Precipitation  
Precipitation 0.06 in 0.18 in 2.52 in (1994)
Month to date precipitation 2.47 4.90  
Year to date precipitation 2.47 4.90  
Snow  
Snow 0.00 in 0.00 in - ()
Month to date snowfall T 0.0  
Since 1 July snowfall T T  
Snow Depth 0.00 in    
Sea Level Pressure  
Sea Level Pressure 29.96 in    
Wind  
Wind Speed 9 mph (North)    
Max Wind Speed 24 mph    
Max Gust Speed 29 mph    
Visibility 7 miles    
Events Rain    
T = Trace of Precipitation, MM = Missing Value Source: NWS Daily Summary

Daily Weather History Graph

Daily Weather History Graph

Search for Another Location

Airport:

Trip Planner

Search our weather history database for the weather conditions in past years. The results will help you decide how hot, cold, wet, or windy it might be!

Date:

Astronomy

Jan. 27, 2014 Rise Set
Actual Time 6:47 AM CST 5:24 PM CST
Civil Twilight 6:21 AM CST 5:50 PM CST
Nautical Twilight 5:52 AM CST 6:19 PM CST
Astronomical Twilight 5:23 AM CST 6:47 PM CST
Moon 3:25 AM CST (1/27) 2:13 PM CST (1/27)
Length of Visible Light 11h 28m
Length of Day
10h 37m
Waning Crescent, 14% of the Moon is Illuminated
Jan 27
Waning Crescent
Jan 30
New
Feb 6
First Quarter
Feb 14
Full
Feb 22
Last Quarter

Hourly Weather History & Observations

Time (CST) Temp. Windchill Dew Point Humidity Pressure Visibility Wind Dir Wind Speed Gust Speed Precip Events Conditions
12:56 AM 53.1 °F - 52.0 °F 96% 29.92 in 10.0 mi South 5.8 mph - N/A   Overcast
1:56 AM 51.1 °F - 51.1 °F 100% 29.91 in 9.0 mi SSE 5.8 mph - N/A   Overcast
2:56 AM 52.0 °F - 52.0 °F 100% 29.92 in 7.0 mi SE 4.6 mph - N/A   Overcast
3:09 AM 51.1 °F - 51.1 °F 100% 29.91 in 7.0 mi SE 5.8 mph - N/A   Overcast
3:39 AM 53.1 °F - 53.1 °F 100% 29.91 in 7.0 mi SSE 5.8 mph - N/A   Overcast
3:56 AM 53.1 °F - 53.1 °F 100% 29.91 in 7.0 mi SSE 5.8 mph - N/A   Overcast
4:56 AM 53.1 °F - 53.1 °F 100% 29.90 in 6.0 mi SSE 5.8 mph - N/A   Overcast
5:03 AM 53.1 °F - 53.1 °F 100% 29.90 in 6.0 mi SSE 5.8 mph - N/A   Overcast
5:56 AM 54.0 °F - 54.0 °F 100% 29.91 in 3.0 mi South 4.6 mph - 0.00 in   Overcast
6:52 AM 53.6 °F - 53.6 °F 100% 29.92 in 3.0 mi Calm Calm - N/A   Overcast
6:56 AM 54.0 °F - 54.0 °F 100% 29.92 in 3.0 mi Calm Calm - N/A   Overcast
7:29 AM 55.9 °F - 55.9 °F 100% 29.93 in 3.0 mi South 5.8 mph - N/A   Overcast
7:56 AM 55.9 °F - 55.9 °F 100% 29.94 in 3.0 mi South 6.9 mph - 0.01 in Rain Light Rain
8:23 AM 57.0 °F - 57.0 °F 100% 29.94 in 3.0 mi South 8.1 mph - 0.00 in   Mostly Cloudy
8:44 AM 57.9 °F - 57.9 °F 100% 29.94 in 3.0 mi SSW 8.1 mph - 0.00 in   Mostly Cloudy
8:54 AM 57.2 °F - 57.2 °F 100% 29.95 in 3.0 mi SW 6.9 mph - 0.00 in   Mostly Cloudy
8:56 AM 57.9 °F - 57.9 °F 100% 29.95 in 3.0 mi SSW 6.9 mph - 0.00 in   Mostly Cloudy
9:46 AM 59.0 °F - 57.9 °F 96% 29.98 in 4.0 mi WNW 10.4 mph - 0.00 in Rain Light Rain
9:56 AM 57.9 °F - 57.9 °F 100% 29.97 in 4.0 mi NW 8.1 mph - 0.05 in Rain Heavy Rain
10:00 AM 57.9 °F - 57.9 °F 100% 29.98 in 3.0 mi NW 6.9 mph - 0.00 in Rain Light Rain
10:19 AM 59.0 °F - 59.0 °F 100% 29.97 in 3.0 mi NW 8.1 mph - 0.00 in   Overcast
10:51 AM 60.8 °F - 57.2 °F 88% 29.96 in 5.0 mi North 11.5 mph - 0.00 in   Mostly Cloudy
10:56 AM 62.1 °F - 59.0 °F 90% 29.96 in 5.0 mi NNW 11.5 mph - 0.00 in   Mostly Cloudy
11:09 AM 61.0 °F - 57.9 °F 90% 29.96 in 6.0 mi NNW 12.7 mph - N/A   Overcast
11:31 AM 62.1 °F - 57.0 °F 84% 29.96 in 6.0 mi North 9.2 mph - N/A   Haze
11:56 AM 63.0 °F - 57.0 °F 81% 29.95 in 7.0 mi North 11.5 mph - N/A   Overcast
12:56 PM 63.0 °F - 55.0 °F 75% 29.92 in 10.0 mi North 9.2 mph - N/A   Mostly Cloudy
1:32 PM 63.0 °F - 54.0 °F 72% 29.92 in 10.0 mi NNE 8.1 mph - N/A   Overcast
1:47 PM 62.1 °F - 54.0 °F 75% 29.93 in 10.0 mi North 6.9 mph - N/A   Overcast
1:56 PM 63.0 °F - 54.0 °F 72% 29.92 in 10.0 mi North 8.1 mph - N/A   Overcast
2:56 PM 63.0 °F - 54.0 °F 72% 29.93 in 10.0 mi North 10.4 mph - N/A   Mostly Cloudy
3:34 PM 62.1 °F - 52.0 °F 70% 29.93 in 10.0 mi North 12.7 mph - N/A   Overcast
3:56 PM 62.1 °F - 52.0 °F 70% 29.93 in 10.0 mi North 15.0 mph - N/A   Mostly Cloudy
4:56 PM 59.0 °F - 50.0 °F 72% 29.96 in 10.0 mi North 11.5 mph - N/A   Overcast
5:56 PM 57.0 °F - 48.9 °F 74% 29.99 in 10.0 mi North 5.8 mph - N/A   Overcast
6:56 PM 55.0 °F - 46.0 °F 72% 30.01 in 10.0 mi North 11.5 mph - N/A   Scattered Clouds
7:56 PM 52.0 °F - 37.0 °F 57% 30.04 in 10.0 mi North 13.8 mph - N/A   Scattered Clouds
8:56 PM 48.9 °F - 30.0 °F 48% 30.06 in 10.0 mi North 19.6 mph 26.5 mph N/A   Scattered Clouds
9:56 PM 46.0 °F 41.0 °F 26.1 °F 46% 30.09 in 10.0 mi North 10.4 mph - N/A   Scattered Clouds
10:56 PM 45.0 °F 38.5 °F 19.9 °F 37% 30.10 in 10.0 mi North 13.8 mph - N/A   Overcast
11:56 PM 43.0 °F 35.1 °F 16.0 °F 34% 30.09 in 10.0 mi North 17.3 mph 25.3 mph N/A   Overcast